sat.trackr.live / text

‹ back to catalog

ONEWEB-0350

NORAD 49214 · 2021-083AE

PAYLOAD ACTIVE UNKNOWN

§ Identity

Operator
Country
UK
Launch date
2021-09-14
Launch site
TYMSC
Launch vehicle
Mass (kg)
RCS (m²)

Purposes: comms

External: N2YO · Heavens-Above · Gunter

§ Orbital elements

Epoch: 2026-05-25T04:35:22.582176Z

Period
109.63 min
Inclination
87.8953°
Eccentricity
0.0001810
Mean motion
13.13468331 rev/d
Perigee alt
1,208.4 km
Apogee alt
1,211.1 km
Semi-major
7,587.9 km
B*
5.4660e-4
RAAN
324.8033°
Arg perigee
103.5454°
Mean anomaly
256.5877°
Rev number
22,791

§ Raw data

ONEWEB-03501 49214U 21083AE  26145.19123359  .00000212  00000+0  54660-3 0  99932 49214  87.8953 324.8033 0001810 103.5454 256.5877 13.13468331227911

JSON: /api/v1/satellites/49214 · /tle

For live sub-satellite position, see the globe view (requires WebGL).

§ Visibility from observer

Set your observer location to see the next 7 days of passes ≥ 10°. The values pass through the URL so the page stays shareable.

No JS? Fill the form by hand. The geolocation button needs JavaScript.